Lexington Weather

Lexington, Massachusetts, USA

56°F
10/22/2020 8:10pm 
  • Lexington Conditions: Mostly cloudy
  • Temperature: 55.8°F / 13.2°C 
  • Dew Point: 54.3°F 
  • Relative Humidity: 95
  • Wind: Calm, 10-min avg: Calm, gust: 2 mph
  • Barometer: 30.22 in Steady
  • Visibility: 7 miles
  • Rain Today: 0.00 in
  •   
Southeast Middlesex County - Special Weather Statement
 - SEE ALL NEARBY ALERTS -

Regional Weather Roundup
for Boston / Norton, MA

        
000
ASUS41 KBOX 200304
RWRBOX

REGIONAL WEATHER ROUNDUP
NATIONAL WEATHER SERVICE BOSTON/NORTON MA
1100 PM EDT MON OCT 19 2020

NOTE:  "FAIR" INDICATES FEW OR NO CLOUDS BELOW 12,000 FEET WITH NO 
SIGNIFICANT WEATHER AND/OR OBSTRUCTIONS TO VISIBILITY.

MAZALL-200400-
EASTERN MASSACHUSETTS
  
CITY           SKY/WX    TMP DP  RH WIND       PRES   REMARKS
BOSTON         MOCLDY    52  48  86 S8        30.33F                  
BEVERLY        MOCLDY    51  49  92 SE5       30.31F                  
LAWRENCE       MOCLDY    52  48  86 SE5       30.33F                  
BEDFORD        MOCLDY    55  49  80 S9        30.30F                  
BLUE HILL        N/A     50  47  89 S9        30.31F                  
NORWOOD        PTCLDY    47  44  90 CALM      30.32F                  
MARSHFIELD     PTCLDY    45  45 100 CALM      30.34S                  
PLYMOUTH       CLEAR     44  42  93 CALM      30.34S                  
TAUNTON        CLEAR     44  42  93 CALM      30.34S                  
NEW BEDFORD    CLEAR     44  42  93 CALM      30.33F                  
$$

MAZALL-200400-
CAPE COD AND THE ISLANDS
  
CITY           SKY/WX    TMP DP  RH WIND       PRES   REMARKS
FALMOUTH       MOCLDY    43  43 100 CALM      30.34S                  
HYANNIS        CLOUDY    49  46  90 CALM      30.33F                  
CHATHAM        CLOUDY    52  49  89 CALM      30.35S                  
PROVINCETOWN   CLEAR     42  39  89 SE3       30.34F                  
NANTUCKET      CLOUDY   N/A N/A N/A N3        30.34S                  
MARTHAS VNYRD  MOCLDY    47  44  90 CALM      30.34F                  
$$
 
MAZALL-200400-
CENTRAL AND WESTERN MASSACHUSETTS
  
CITY           SKY/WX    TMP DP  RH WIND       PRES   REMARKS
WORCESTER      MOCLDY    53  48  83 SW8       30.31F                  
FITCHBURG      MOCLDY    50  47  89 CALM      30.32S                  
ORANGE         MOCLDY    52  51  97 SW3       30.31S                  
SPRINGFIELD    MOCLDY    53  49  87 CALM      30.30S                  
WESTFIELD      MOCLDY    53  51  93 S3        30.30F                  
NORTH ADAMS    CLOUDY    58  50  75 E8        30.27S                  
PITTSFIELD     CLOUDY    55  49  80 SE7       30.27S                  
$$
 
RIZALL-200400-
RHODE ISLAND
  
CITY           SKY/WX    TMP DP  RH WIND       PRES   REMARKS
PROVIDENCE     MOCLDY    51  49  92 CALM      30.33F                  
NEWPORT        CLEAR     48  48 100 CALM      30.32F                  
BLOCK ISLAND   PTCLDY    53  49  86 SE6       30.33F                  
SMITHFIELD     PTCLDY    51  51 100 VRB3        N/A                   
WESTERLY       PTCLDY    48  46  93 CALM      30.32F                  
$$
 
CTZALL-200400-
CONNECTICUT
  
CITY           SKY/WX    TMP DP  RH WIND       PRES   REMARKS
BRADLEY INTL   MOCLDY    54  50  86 S3        30.30F                  
HARTFORD       MOCLDY    56  50  80 S3        30.30F                  
BRIDGEPORT     PTCLDY    60  53  77 SE7       30.30S                  
DANBURY        PTCLDY    54  52  93 CALM      30.31S                  
GROTON         PTCLDY    49  47  93 N3        30.31F                  
NEW HAVEN      MOCLDY    60  53  77 SE7       30.30F                  
CHESTER        NOT AVBL                                               
MERIDEN        MOCLDY    52  50  93 NW3       30.30F                  
WILLIMANTIC    MOCLDY    50  49  96 CALM      30.32F                  
OXFORD         MOCLDY    53  52  96 SE3       30.31S                  
$$

MEZ002-015-021-024-NHZ003-005-008-011-012-014-VTZ005-008-200400-
NORTHERN NEW ENGLAND
  
CITY           SKY/WX    TMP DP  RH WIND       PRES   REMARKS
PORTLAND ME    MOCLDY    50  48  93 CALM      30.33S                  
BANGOR ME      CLOUDY    49  45  86 CALM      30.34S                  
CONCORD NH     MOCLDY    52  44  74 SE3       30.30F                  
MANCHESTER NH  CLOUDY    54  45  71 S3        30.29F                  
NASHUA NH      MOCLDY    53  50  89 CALM      30.31F                  
PORTSMOUTH NH  CLOUDY    50  46  87 E6        30.30                   
JAFFREY NH     MOCLDY    51  46  83 S3        30.30F                  
KEENE NH       LGT RAIN  53  50  89 CALM      30.30R                  
BURLINGTON VT  CLOUDY    55  52  89 S8        30.21F                  
MT. WASHINGTON LGT RAIN  36  36 100 W33G40      N/A  VSB 1/16WCI  22  
$$

NYZ052-076-200400-
EASTERN NEW YORK
  
CITY           SKY/WX    TMP DP  RH WIND       PRES   REMARKS
ALBANY         LGT RAIN  54  52  93 SE7       30.24F                  
NEW YORK CITY  MOCLDY    61  54  77 S6        30.28S                  
$$
 
ANZALL-200400-
MARINE OBSERVATIONS
  
STATION/POSITION TIME  TEMP    WIND        PRES    VSBY  WAVE
                       AIR SEA DIR/SP/G                  HT/PER
                 (UTC) (F)     (DEG/KT/KT) (MB)    (MI)  (FT/S)
BOSTON BUOY      0250   56 58  170/  8/  8 1026.3F         3/ 7
BUZZARDS BAY     0200          160/  5/  6 1028.4S
NANTUCKET SOUND  0250      61  140/  4/  6   N/A           0
MASS BAY-STELLWA 0204   56 56  190/  8/ 10 1027.2F  1 7/8  3/ 8
ISLE OF SHOALS   0200   55     190/ 10/ 11 1026.8R
S OF BLOCK IS    0226      63                N/A           3/ 8
$$

......................KEY.........................
  SKY/WX - SKY CONDITION/PRESENT WEATHER
  TMP    - TEMPERATURE IN FAHRENHEIT
  DWPT   - DEWPOINT IN FAHRENHEIT
  RH     - RELATIVE HUMIDITY IN PERCENT
  WIND   - DIRECTION AND SPEED IN MPH
  PRES   - MEAN SEA LEVEL PRESSURE IN INCHES OF HG
  WCI    - WIND CHILL INDEX
  VSB    - VISIBILITY IN MILES
  HX     - HEAT INDEX
  TC     - TEMPERATURE IN CELSIUS
  VRB    - VARIABLE WIND DIRECTION
  N/A    - NOT AVAILABLE
  
      

Other recent Regional Weather Roundups

Thu Oct 22, 7:05pm

Thu Oct 22, 6:04pm

Thu Oct 22, 5:04pm

Thu Oct 22, 4:05pm

Thu Oct 22, 3:04pm

Thu Oct 22, 2:05pm

Thu Oct 22, 1:04pm

Thu Oct 22, 12:04pm

Thu Oct 22, 11:04am

Thu Oct 22, 10:05am

Thu Oct 22, 9:04am

Thu Oct 22, 8:05am

Thu Oct 22, 7:04am

Thu Oct 22, 6:04am

Thu Oct 22, 5:04am

Thu Oct 22, 4:04am

Thu Oct 22, 3:04am

Thu Oct 22, 2:04am

Thu Oct 22, 1:04am

Thu Oct 22, 12:04am

Wed Oct 21, 11:05pm

Wed Oct 21, 10:04pm

Wed Oct 21, 9:04pm

Wed Oct 21, 8:04pm

Wed Oct 21, 7:04pm

Wed Oct 21, 6:04pm

Wed Oct 21, 5:05pm

Wed Oct 21, 4:04pm

Wed Oct 21, 3:04pm

Wed Oct 21, 2:05pm

Wed Oct 21, 1:04pm

Wed Oct 21, 12:04pm

Wed Oct 21, 11:04am

Wed Oct 21, 10:04am

Wed Oct 21, 9:04am

Wed Oct 21, 8:04am

Wed Oct 21, 7:04am

Wed Oct 21, 6:04am

Wed Oct 21, 5:04am

Wed Oct 21, 4:04am

Wed Oct 21, 3:04am

Wed Oct 21, 2:04am

Wed Oct 21, 1:04am

Wed Oct 21, 12:04am

Tue Oct 20, 11:05pm

Tue Oct 20, 10:04pm

Tue Oct 20, 9:04pm

Tue Oct 20, 8:05pm

Tue Oct 20, 7:04pm

Tue Oct 20, 6:04pm

Tue Oct 20, 5:05pm

Tue Oct 20, 4:04pm

Tue Oct 20, 3:05pm

Tue Oct 20, 2:07pm

Tue Oct 20, 1:04pm

Tue Oct 20, 12:04pm

Tue Oct 20, 11:04am

Tue Oct 20, 10:05am

Tue Oct 20, 9:04am

Tue Oct 20, 8:04am

Tue Oct 20, 7:04am

Tue Oct 20, 6:04am

Tue Oct 20, 5:04am

Tue Oct 20, 4:04am

Tue Oct 20, 3:04am

Tue Oct 20, 2:04am

Tue Oct 20, 1:04am

Tue Oct 20, 12:04am

Mon Oct 19, 10:04pm

Mon Oct 19, 9:04pm

Mon Oct 19, 8:04pm

Mon Oct 19, 7:04pm

Mon Oct 19, 6:04pm

Mon Oct 19, 5:04pm

Mon Oct 19, 4:04pm

Mon Oct 19, 3:04pm

Mon Oct 19, 2:04pm

Mon Oct 19, 1:05pm

Mon Oct 19, 12:04pm

Mon Oct 19, 11:04am

Mon Oct 19, 10:04am

Mon Oct 19, 9:04am

Mon Oct 19, 8:04am

Mon Oct 19, 7:04am

Mon Oct 19, 6:04am

Mon Oct 19, 5:04am

Mon Oct 19, 4:04am

Mon Oct 19, 3:04am

Mon Oct 19, 2:04am

Mon Oct 19, 1:04am

Mon Oct 19, 12:05am

Sun Oct 18, 11:04pm

Sun Oct 18, 10:04pm

Sun Oct 18, 9:04pm

Sun Oct 18, 8:04pm

Sun Oct 18, 7:05pm

Sun Oct 18, 6:04pm

Sun Oct 18, 5:05pm

Sun Oct 18, 4:05pm

Sun Oct 18, 3:04pm

Sun Oct 18, 2:05pm

Sun Oct 18, 1:04pm

Sun Oct 18, 12:04pm

Sun Oct 18, 11:04am

Sun Oct 18, 10:04am

Sun Oct 18, 9:04am

Sun Oct 18, 8:04am

Sun Oct 18, 7:04am

Sun Oct 18, 6:04am

Sun Oct 18, 5:04am

Sun Oct 18, 4:04am

Sun Oct 18, 3:04am

Sun Oct 18, 2:04am

Sun Oct 18, 1:04am

Sun Oct 18, 12:04am

Sat Oct 17, 11:05pm

Sat Oct 17, 10:04pm

Sat Oct 17, 9:04pm

Sat Oct 17, 8:04pm

Sat Oct 17, 7:04pm

Sat Oct 17, 6:04pm

Sat Oct 17, 5:05pm

Sat Oct 17, 4:04pm

Sat Oct 17, 3:04pm

Sat Oct 17, 2:05pm

Sat Oct 17, 1:05pm

Sat Oct 17, 12:04pm

Sat Oct 17, 11:05am

Sat Oct 17, 10:04am

Sat Oct 17, 9:04am

Sat Oct 17, 8:04am

Sat Oct 17, 7:04am

Sat Oct 17, 6:04am

Sat Oct 17, 5:04am

Sat Oct 17, 4:04am

Sat Oct 17, 3:04am

Sat Oct 17, 2:04am

Sat Oct 17, 1:05am

Sat Oct 17, 12:04am

Fri Oct 16, 11:05pm

Fri Oct 16, 10:04pm

Fri Oct 16, 9:05pm

Fri Oct 16, 8:04pm

Fri Oct 16, 7:05pm

Fri Oct 16, 6:04pm

Fri Oct 16, 5:04pm

Fri Oct 16, 4:05pm

Fri Oct 16, 3:04pm

Fri Oct 16, 2:04pm

Fri Oct 16, 1:04pm

Fri Oct 16, 12:04pm

Fri Oct 16, 11:05am

Fri Oct 16, 10:04am

Fri Oct 16, 9:04am

Fri Oct 16, 8:04am

Fri Oct 16, 7:04am

Fri Oct 16, 6:04am

Fri Oct 16, 5:04am

Fri Oct 16, 4:04am

Fri Oct 16, 3:04am

Fri Oct 16, 2:04am

Fri Oct 16, 1:04am

Fri Oct 16, 12:04am

Thu Oct 15, 11:04pm

Thu Oct 15, 10:04pm

Thu Oct 15, 9:05pm

Thu Oct 15, 8:04pm

Meta data:

ID: 8752dd8e-ea17-46d1-bd54-ce0c5a9523cc
Link: https://api.weather.gov/products/8752dd8e-ea17-46d1-bd54-ce0c5a9523cc